,MapDate,Name,None,D0,D1,D2,D3,D4,ValidStart,ValidEnd,StatisticFormatID,SUMAREA,DSCI,RANK
0,20240625,Southern Plains DEWS,46.76,21.31,19.22,8.66,3.93,0.12,2024-06-25,2024-07-01,2,31.93,102.05,724.0
1,20240618,Southern Plains DEWS,43.82,20.42,22.17,9.5,3.98,0.12,2024-06-18,2024-06-24,2,35.77,109.78,692.0
2,20240611,Southern Plains DEWS,46.0,19.35,21.01,9.63,3.89,0.12,2024-06-11,2024-06-17,2,34.65,106.42,704.0
3,20240604,Southern Plains DEWS,47.21,17.57,19.51,11.5,3.79,0.42,2024-06-04,2024-06-10,2,35.22,108.35,697.5
4,20240528,Southern Plains DEWS,44.48,19.03,17.29,15.21,3.58,0.42,2024-05-28,2024-06-03,2,36.5,115.66,658.0
5,20240521,Southern Plains DEWS,45.55,18.79,16.7,15.16,3.38,0.42,2024-05-21,2024-05-27,2,35.66,113.29,665.0
6,20240514,Southern Plains DEWS,43.48,20.24,16.26,15.86,3.74,0.42,2024-05-14,2024-05-20,2,36.28,117.4,652.0
7,20240507,Southern Plains DEWS,42.42,19.88,18.16,15.45,3.67,0.42,2024-05-07,2024-05-13,2,37.7,119.33,645.0
8,20240430,Southern Plains DEWS,40.31,20.08,20.12,15.41,3.67,0.42,2024-04-30,2024-05-06,2,39.62,123.33,633.0
9,20240423,Southern Plains DEWS,37.13,20.73,25.09,12.97,3.67,0.42,2024-04-23,2024-04-29,2,42.15,126.6,621.0
10,20240416,Southern Plains DEWS,39.0,23.22,23.85,9.85,3.12,0.97,2024-04-16,2024-04-22,2,37.79,117.8,651.0
11,20240409,Southern Plains DEWS,42.56,25.61,19.64,8.14,3.07,0.97,2024-04-09,2024-04-15,2,31.82,106.44,703.0
12,20240402,Southern Plains DEWS,44.85,24.09,18.64,8.38,3.07,0.97,2024-04-02,2024-04-08,2,31.06,103.64,714.0
13,20240326,Southern Plains DEWS,48.24,21.06,18.21,8.45,3.07,0.97,2024-03-26,2024-04-01,2,30.7,99.96,731.0
14,20240319,Southern Plains DEWS,45.91,24.67,17.03,8.06,3.36,0.97,2024-03-19,2024-03-25,2,29.42,101.2,727.0
15,20240312,Southern Plains DEWS,44.92,25.66,16.79,8.27,3.38,0.97,2024-03-12,2024-03-18,2,29.41,102.42,722.0
16,20240305,Southern Plains DEWS,50.12,21.08,16.75,7.69,3.38,0.97,2024-03-05,2024-03-11,2,28.79,96.02,755.0
17,20240227,Southern Plains DEWS,52.51,18.8,16.65,7.69,3.38,0.97,2024-02-27,2024-03-04,2,28.69,93.54,764.0
18,20240220,Southern Plains DEWS,56.72,14.58,16.65,7.69,3.38,0.97,2024-02-20,2024-02-26,2,28.69,89.32,780.0
19,20240213,Southern Plains DEWS,57.52,14.98,14.93,8.11,3.5,0.97,2024-02-13,2024-02-19,2,27.51,88.02,788.0
20,20240206,Southern Plains DEWS,53.71,17.18,13.6,10.18,4.35,0.97,2024-02-06,2024-02-12,2,29.1,97.17,749.0
21,20240130,Southern Plains DEWS,51.52,18.19,14.28,10.75,4.28,0.97,2024-01-30,2024-02-05,2,30.28,100.97,729.0
22,20240123,Southern Plains DEWS,44.71,21.48,15.74,11.1,6.0,0.97,2024-01-23,2024-01-29,2,33.81,115.11,660.0
23,20240116,Southern Plains DEWS,39.13,22.94,18.87,11.63,6.46,0.97,2024-01-16,2024-01-22,2,37.93,126.26,622.0
24,20240109,Southern Plains DEWS,40.32,22.62,18.0,11.63,6.46,0.97,2024-01-09,2024-01-15,2,37.06,124.2,628.0
25,20240102,Southern Plains DEWS,35.85,20.06,21.5,13.9,7.31,1.38,2024-01-02,2024-01-08,2,44.09,140.9,565.5
26,20231226,Southern Plains DEWS,35.9,20.17,21.05,14.19,7.31,1.38,2023-12-26,2024-01-01,2,43.93,140.98,564.0
27,20231219,Southern Plains DEWS,29.81,22.29,23.83,14.42,8.17,1.49,2023-12-19,2023-12-25,2,47.91,153.34,508.0
28,20231212,Southern Plains DEWS,26.52,22.79,24.43,16.13,8.64,1.49,2023-12-12,2023-12-18,2,50.69,162.05,464.0
29,20231205,Southern Plains DEWS,28.94,21.17,22.95,16.88,8.58,1.49,2023-12-05,2023-12-11,2,49.9,159.48,474.5
30,20231128,Southern Plains DEWS,28.23,21.48,21.3,19.06,8.04,1.88,2023-11-28,2023-12-04,2,50.28,162.82,454.0
31,20231121,Southern Plains DEWS,23.98,24.37,20.61,20.64,8.52,1.88,2023-11-21,2023-11-27,2,51.65,170.99,424.0
32,20231114,Southern Plains DEWS,21.49,21.04,22.42,23.6,9.44,2.01,2023-11-14,2023-11-20,2,57.47,184.49,373.0
33,20231107,Southern Plains DEWS,18.55,17.42,24.56,25.86,11.41,2.19,2023-11-07,2023-11-13,2,64.02,200.71,320.0
34,20231031,Southern Plains DEWS,18.6,17.93,22.53,28.78,10.02,2.14,2023-10-31,2023-11-06,2,63.47,200.11,322.0
35,20231024,Southern Plains DEWS,13.61,14.38,18.59,28.8,19.14,5.48,2023-10-24,2023-10-30,2,72.01,241.92,221.0
36,20231017,Southern Plains DEWS,13.7,14.96,19.92,26.42,19.4,5.61,2023-10-17,2023-10-23,2,71.35,239.71,224.0
37,20231010,Southern Plains DEWS,14.41,14.87,18.51,27.08,19.96,5.16,2023-10-10,2023-10-16,2,70.71,238.77,229.5
38,20231003,Southern Plains DEWS,12.74,13.24,17.64,24.98,22.32,9.08,2023-10-03,2023-10-09,2,74.02,258.14,192.0
39,20230926,Southern Plains DEWS,9.93,14.8,20.48,22.9,22.87,9.02,2023-09-26,2023-10-02,2,75.27,261.04,186.0
40,20230919,Southern Plains DEWS,8.88,14.67,20.02,23.28,23.18,9.96,2023-09-19,2023-09-25,2,76.44,267.07,172.0
41,20230912,Southern Plains DEWS,10.1,11.85,17.87,26.93,21.75,11.49,2023-09-12,2023-09-18,2,78.04,272.83,154.0
42,20230905,Southern Plains DEWS,8.14,13.73,19.58,27.29,22.07,9.2,2023-09-05,2023-09-11,2,78.14,269.04,168.0
43,20230829,Southern Plains DEWS,9.65,19.79,17.06,27.87,17.77,7.86,2023-08-29,2023-09-04,2,70.56,247.9,205.0
44,20230822,Southern Plains DEWS,12.49,17.55,18.1,25.96,18.62,7.28,2023-08-22,2023-08-28,2,69.96,242.51,220.0
45,20230815,Southern Plains DEWS,20.03,19.84,23.11,24.03,11.85,1.14,2023-08-15,2023-08-21,2,60.13,191.25,349.0
46,20230808,Southern Plains DEWS,20.86,21.87,27.55,20.06,8.51,1.15,2023-08-08,2023-08-14,2,57.27,176.94,397.0
47,20230801,Southern Plains DEWS,23.83,28.43,27.15,13.4,6.09,1.1,2023-08-01,2023-08-07,2,47.74,152.79,510.0
48,20230725,Southern Plains DEWS,24.87,30.24,25.64,12.06,6.09,1.1,2023-07-25,2023-07-31,2,44.89,147.56,538.0
49,20230718,Southern Plains DEWS,26.36,32.29,25.48,8.59,6.18,1.11,2023-07-18,2023-07-24,2,41.36,139.29,580.0
50,20230711,Southern Plains DEWS,30.85,34.27,20.98,8.13,4.92,0.86,2023-07-11,2023-07-17,2,34.89,124.6,627.0
51,20230704,Southern Plains DEWS,25.73,39.0,19.95,8.39,5.72,1.21,2023-07-04,2023-07-10,2,35.27,133.0,598.0
52,20230627,Southern Plains DEWS,26.91,39.46,18.72,8.19,5.5,1.21,2023-06-27,2023-07-03,2,33.62,129.52,611.0
53,20230620,Southern Plains DEWS,34.07,31.34,19.15,8.68,5.51,1.25,2023-06-20,2023-06-26,2,34.59,123.97,631.0
54,20230613,Southern Plains DEWS,35.82,27.15,18.97,10.55,5.37,2.15,2023-06-13,2023-06-19,2,37.04,128.97,614.0
55,20230606,Southern Plains DEWS,34.18,24.91,17.65,14.8,6.01,2.45,2023-06-06,2023-06-12,2,40.91,140.9,565.5
56,20230530,Southern Plains DEWS,33.7,21.65,14.89,15.3,9.54,4.92,2023-05-30,2023-06-05,2,44.65,160.09,469.0
57,20230523,Southern Plains DEWS,33.66,15.65,17.11,16.11,11.51,5.96,2023-05-23,2023-05-29,2,50.69,174.04,407.0
58,20230516,Southern Plains DEWS,33.22,12.05,17.22,16.2,13.92,7.39,2023-05-16,2023-05-22,2,54.73,187.72,363.0
59,20230509,Southern Plains DEWS,29.41,13.67,13.24,18.25,16.62,8.81,2023-05-09,2023-05-15,2,56.92,205.43,302.0
60,20230502,Southern Plains DEWS,28.75,13.52,13.99,16.23,18.45,9.07,2023-05-02,2023-05-08,2,57.74,209.34,290.0
61,20230425,Southern Plains DEWS,24.95,16.1,14.86,17.89,14.05,12.16,2023-04-25,2023-05-01,2,58.96,216.49,274.0
62,20230418,Southern Plains DEWS,22.4,17.0,16.29,17.93,13.87,12.51,2023-04-18,2023-04-24,2,60.6,221.4,257.0
63,20230411,Southern Plains DEWS,22.92,16.26,17.66,18.26,12.92,11.99,2023-04-11,2023-04-17,2,60.83,217.99,268.0
64,20230404,Southern Plains DEWS,21.1,13.44,18.09,21.37,14.89,11.12,2023-04-04,2023-04-10,2,65.47,228.89,241.0
65,20230328,Southern Plains DEWS,19.84,14.48,17.62,23.16,14.66,10.24,2023-03-28,2023-04-03,2,65.68,229.04,240.0
66,20230321,Southern Plains DEWS,20.51,14.79,18.15,23.73,13.21,9.6,2023-03-21,2023-03-27,2,64.69,223.12,253.0
67,20230314,Southern Plains DEWS,19.45,15.36,19.79,22.59,14.38,8.44,2023-03-14,2023-03-20,2,65.2,222.43,254.0
68,20230307,Southern Plains DEWS,18.3,16.77,23.01,19.59,14.14,8.19,2023-03-07,2023-03-13,2,64.93,219.07,265.0
69,20230228,Southern Plains DEWS,17.37,16.59,25.49,18.91,13.45,8.19,2023-02-28,2023-03-06,2,66.04,219.05,266.0
70,20230221,Southern Plains DEWS,17.16,17.52,24.97,20.11,11.97,8.27,2023-02-21,2023-02-27,2,65.32,217.02,270.0
71,20230214,Southern Plains DEWS,16.59,19.44,22.68,21.25,11.85,8.19,2023-02-14,2023-02-20,2,63.97,216.9,272.0
72,20230207,Southern Plains DEWS,14.34,21.74,21.19,20.12,13.91,8.7,2023-02-07,2023-02-13,2,63.92,223.62,251.0
73,20230131,Southern Plains DEWS,12.96,23.0,21.36,20.16,14.0,8.52,2023-01-31,2023-02-06,2,64.04,224.8,248.5
74,20230124,Southern Plains DEWS,13.39,21.11,21.83,20.91,14.0,8.77,2023-01-24,2023-01-30,2,65.51,227.35,243.0
75,20230117,Southern Plains DEWS,14.02,22.3,20.08,20.83,14.0,8.77,2023-01-17,2023-01-23,2,63.68,224.8,248.5
76,20230110,Southern Plains DEWS,16.8,21.33,19.65,19.55,13.89,8.77,2023-01-10,2023-01-16,2,61.86,218.69,267.0
77,20230103,Southern Plains DEWS,17.91,21.19,19.14,19.46,13.79,8.51,2023-01-03,2023-01-09,2,60.9,215.56,277.0
78,20221227,Southern Plains DEWS,17.14,22.75,18.79,19.19,13.84,8.29,2022-12-27,2023-01-02,2,60.11,214.71,279.5
79,20221220,Southern Plains DEWS,17.14,22.75,18.79,19.19,13.84,8.29,2022-12-20,2022-12-26,2,60.11,214.71,279.5
80,20221213,Southern Plains DEWS,15.52,22.19,20.16,19.88,13.87,8.38,2022-12-13,2022-12-19,2,62.29,219.53,262.0
81,20221206,Southern Plains DEWS,15.79,21.55,18.52,19.26,14.87,10.01,2022-12-06,2022-12-12,2,62.66,225.9,244.0
82,20221129,Southern Plains DEWS,15.82,21.8,18.24,19.44,14.91,9.8,2022-11-29,2022-12-05,2,62.39,225.24,245.0
83,20221122,Southern Plains DEWS,8.12,22.02,19.71,21.76,18.01,10.38,2022-11-22,2022-11-28,2,69.86,250.66,201.0
84,20221115,Southern Plains DEWS,6.73,22.54,20.06,22.22,18.32,10.14,2022-11-15,2022-11-21,2,70.74,253.3,198.0
85,20221108,Southern Plains DEWS,6.15,22.71,19.59,23.05,18.11,10.39,2022-11-08,2022-11-14,2,71.14,255.43,193.0
86,20221101,Southern Plains DEWS,5.12,20.37,21.12,24.94,17.72,10.73,2022-11-01,2022-11-07,2,74.51,261.96,183.0
87,20221025,Southern Plains DEWS,4.21,17.13,23.02,26.73,19.05,9.85,2022-10-25,2022-10-31,2,78.65,268.81,169.0
88,20221018,Southern Plains DEWS,4.21,18.39,21.29,25.61,19.96,10.54,2022-10-18,2022-10-24,2,77.4,270.34,163.0
89,20221011,Southern Plains DEWS,3.71,17.72,22.03,24.05,22.44,10.04,2022-10-11,2022-10-17,2,78.56,273.89,152.0
90,20221004,Southern Plains DEWS,6.83,11.49,24.63,27.32,21.57,8.15,2022-10-04,2022-10-10,2,81.67,269.74,165.0
91,20220927,Southern Plains DEWS,9.25,15.06,26.73,24.32,17.13,7.51,2022-09-27,2022-10-03,2,75.69,247.55,208.0
92,20220920,Southern Plains DEWS,12.98,12.31,25.67,26.35,17.0,5.7,2022-09-20,2022-09-26,2,74.72,239.2,227.0
93,20220913,Southern Plains DEWS,13.26,12.88,24.31,29.07,17.64,2.84,2022-09-13,2022-09-19,2,73.86,233.47,236.0
94,20220906,Southern Plains DEWS,12.62,11.56,23.76,31.18,18.25,2.63,2022-09-06,2022-09-12,2,75.82,238.77,229.5
95,20220830,Southern Plains DEWS,5.97,9.55,20.41,33.16,25.62,5.29,2022-08-30,2022-09-05,2,84.48,278.78,141.0
96,20220823,Southern Plains DEWS,3.37,5.08,15.3,35.26,31.38,9.61,2022-08-23,2022-08-29,2,91.55,315.03,70.0
97,20220816,Southern Plains DEWS,1.81,2.72,10.43,27.29,39.33,18.41,2022-08-16,2022-08-22,2,95.46,354.82,35.0
98,20220809,Southern Plains DEWS,0.76,2.03,10.23,27.19,39.79,20.01,2022-08-09,2022-08-15,2,97.22,363.27,33.0
99,20220802,Southern Plains DEWS,0.68,2.08,10.72,33.96,35.87,16.69,2022-08-02,2022-08-08,2,97.24,352.33,36.0
100,20220726,Southern Plains DEWS,0.68,1.81,12.5,31.71,37.6,15.71,2022-07-26,2022-08-01,2,97.52,350.89,38.0
101,20220719,Southern Plains DEWS,0.68,6.14,15.16,32.03,30.26,15.73,2022-07-19,2022-07-25,2,93.18,332.24,47.0
102,20220712,Southern Plains DEWS,3.34,10.75,19.5,24.27,26.13,16.01,2022-07-12,2022-07-18,2,85.91,307.13,87.0
103,20220705,Southern Plains DEWS,10.8,13.07,16.67,17.47,28.98,13.0,2022-07-05,2022-07-11,2,76.12,279.74,138.0
104,20220628,Southern Plains DEWS,14.6,9.48,17.09,17.88,27.86,13.07,2022-06-28,2022-07-04,2,75.9,274.09,151.0
105,20220621,Southern Plains DEWS,16.64,9.73,14.47,15.88,22.81,20.47,2022-06-21,2022-06-27,2,73.63,279.9,137.0
106,20220614,Southern Plains DEWS,18.55,8.97,13.67,16.33,22.19,20.28,2022-06-14,2022-06-20,2,72.47,275.46,148.0
107,20220607,Southern Plains DEWS,20.02,7.43,12.31,18.38,22.26,19.62,2022-06-07,2022-06-13,2,72.57,274.33,150.0
108,20220531,Southern Plains DEWS,19.8,6.37,9.69,18.54,24.33,21.27,2022-05-31,2022-06-06,2,73.83,285.04,125.0
109,20220524,Southern Plains DEWS,18.1,7.06,9.47,17.51,23.96,23.91,2022-05-24,2022-05-30,2,74.85,293.92,111.0
110,20220517,Southern Plains DEWS,14.76,7.22,9.34,12.53,28.37,27.77,2022-05-17,2022-05-23,2,78.01,315.82,69.0
111,20220510,Southern Plains DEWS,15.39,8.01,9.12,14.69,30.24,22.56,2022-05-10,2022-05-16,2,76.61,304.08,92.0
112,20220503,Southern Plains DEWS,11.18,9.57,10.48,16.69,30.38,21.71,2022-05-03,2022-05-09,2,79.26,310.67,77.0
113,20220426,Southern Plains DEWS,8.9,10.58,9.95,19.83,33.25,17.49,2022-04-26,2022-05-02,2,80.52,310.42,78.0
114,20220419,Southern Plains DEWS,7.69,7.75,13.02,20.31,38.2,13.04,2022-04-19,2022-04-25,2,84.57,312.72,72.0
115,20220412,Southern Plains DEWS,6.91,8.12,12.56,26.98,33.51,11.93,2022-04-12,2022-04-18,2,84.98,307.87,83.0
116,20220405,Southern Plains DEWS,7.92,8.52,12.89,31.6,29.97,9.1,2022-04-05,2022-04-11,2,83.56,294.48,109.0
117,20220329,Southern Plains DEWS,7.72,6.62,14.93,30.86,32.66,7.21,2022-03-29,2022-04-04,2,85.66,295.75,106.0
118,20220322,Southern Plains DEWS,6.89,7.37,14.58,33.3,31.29,6.57,2022-03-22,2022-03-28,2,85.74,294.44,110.0
119,20220315,Southern Plains DEWS,3.73,6.13,17.43,30.54,33.54,8.63,2022-03-15,2022-03-21,2,90.14,309.92,79.0
120,20220308,Southern Plains DEWS,3.89,7.07,18.99,32.06,31.09,6.9,2022-03-08,2022-03-14,2,89.04,300.09,100.0
121,20220301,Southern Plains DEWS,5.24,11.61,22.14,31.51,28.35,1.15,2022-03-01,2022-03-07,2,83.15,269.57,166.0
122,20220222,Southern Plains DEWS,6.13,11.71,24.25,29.81,26.99,1.12,2022-02-22,2022-02-28,2,82.17,263.2,181.0
123,20220215,Southern Plains DEWS,7.96,10.61,21.96,30.25,28.1,1.12,2022-02-15,2022-02-21,2,81.43,263.28,180.0
124,20220208,Southern Plains DEWS,8.91,9.76,23.71,29.99,26.52,1.12,2022-02-08,2022-02-14,2,81.34,258.83,191.0
125,20220201,Southern Plains DEWS,5.06,9.16,19.06,34.29,31.32,1.12,2022-02-01,2022-02-07,2,85.79,281.03,133.0
126,20220125,Southern Plains DEWS,3.32,9.65,21.56,32.98,31.56,0.94,2022-01-25,2022-01-31,2,87.04,282.65,130.0
127,20220118,Southern Plains DEWS,4.14,9.38,23.87,36.81,25.47,0.33,2022-01-18,2022-01-24,2,86.48,271.08,159.0
128,20220111,Southern Plains DEWS,4.11,11.56,23.4,38.32,22.61,0.0,2022-01-11,2022-01-17,2,84.33,263.76,179.0
129,20220104,Southern Plains DEWS,7.49,10.79,26.42,36.41,18.89,0.0,2022-01-04,2022-01-10,2,81.72,248.42,204.0
130,20211228,Southern Plains DEWS,11.12,14.78,29.51,32.45,12.14,0.0,2021-12-28,2022-01-03,2,74.1,219.71,260.0
131,20211221,Southern Plains DEWS,14.73,16.7,36.47,26.64,5.47,0.0,2021-12-21,2021-12-27,2,68.58,191.44,348.0
132,20211214,Southern Plains DEWS,14.71,21.48,35.38,25.39,3.05,0.0,2021-12-14,2021-12-20,2,63.82,180.61,383.0
133,20211207,Southern Plains DEWS,18.07,19.96,37.13,22.66,2.19,0.0,2021-12-07,2021-12-13,2,61.98,170.96,426.0
134,20211130,Southern Plains DEWS,24.99,20.76,33.3,19.22,1.72,0.0,2021-11-30,2021-12-06,2,54.24,151.9,522.0
135,20211123,Southern Plains DEWS,29.38,27.11,28.47,13.98,1.07,0.0,2021-11-23,2021-11-29,2,43.52,130.27,608.0
136,20211116,Southern Plains DEWS,32.04,29.48,27.04,10.87,0.57,0.0,2021-11-16,2021-11-22,2,38.48,118.45,649.0
137,20211109,Southern Plains DEWS,34.02,30.48,26.35,8.71,0.43,0.0,2021-11-09,2021-11-15,2,35.49,111.03,688.0
138,20211102,Southern Plains DEWS,33.06,31.57,25.74,9.2,0.43,0.0,2021-11-02,2021-11-08,2,35.37,112.37,676.0
139,20211026,Southern Plains DEWS,34.93,34.43,22.92,7.28,0.43,0.0,2021-10-26,2021-11-01,2,30.63,103.83,711.0
140,20211019,Southern Plains DEWS,41.31,31.37,21.16,5.71,0.44,0.0,2021-10-19,2021-10-25,2,27.31,92.58,769.0
141,20211012,Southern Plains DEWS,37.06,34.52,21.09,6.76,0.56,0.0,2021-10-12,2021-10-18,2,28.41,99.22,738.0
142,20211005,Southern Plains DEWS,42.79,31.6,18.0,6.84,0.78,0.0,2021-10-05,2021-10-11,2,25.62,91.24,773.0
143,20210928,Southern Plains DEWS,36.81,36.67,18.78,6.95,0.78,0.0,2021-09-28,2021-10-04,2,26.51,98.2,745.0
144,20210921,Southern Plains DEWS,54.15,26.38,15.12,3.96,0.39,0.0,2021-09-21,2021-09-27,2,19.47,70.06,847.0
145,20210914,Southern Plains DEWS,65.38,22.1,9.16,2.99,0.36,0.0,2021-09-14,2021-09-20,2,12.51,50.83,952.0
146,20210907,Southern Plains DEWS,75.88,13.92,6.84,2.99,0.36,0.0,2021-09-07,2021-09-13,2,10.19,38.01,1026.0
147,20210831,Southern Plains DEWS,75.7,13.49,6.81,3.28,0.72,0.0,2021-08-31,2021-09-06,2,10.81,39.83,1016.0
148,20210824,Southern Plains DEWS,80.38,9.2,6.16,3.17,1.01,0.09,2021-08-24,2021-08-30,2,10.43,35.52,1035.0
149,20210817,Southern Plains DEWS,78.63,10.23,4.87,5.08,1.1,0.09,2021-08-17,2021-08-23,2,11.14,40.06,1014.0
150,20210810,Southern Plains DEWS,79.42,9.15,4.74,4.5,2.04,0.15,2021-08-10,2021-08-16,2,11.43,41.04,1009.0
151,20210803,Southern Plains DEWS,81.68,7.25,4.36,4.52,1.95,0.24,2021-08-03,2021-08-09,2,11.07,38.53,1025.0
152,20210727,Southern Plains DEWS,80.12,8.89,3.92,4.2,2.62,0.25,2021-07-27,2021-08-02,2,10.99,41.06,1008.0
153,20210720,Southern Plains DEWS,78.58,8.64,5.31,3.96,2.56,0.95,2021-07-20,2021-07-26,2,12.78,46.13,976.5
154,20210713,Southern Plains DEWS,76.54,9.0,6.28,4.42,2.46,1.3,2021-07-13,2021-07-19,2,14.46,51.16,949.0
155,20210706,Southern Plains DEWS,76.66,7.73,5.82,5.33,2.93,1.53,2021-07-06,2021-07-12,2,15.61,54.73,923.0
156,20210629,Southern Plains DEWS,71.14,10.06,4.15,7.28,4.66,2.71,2021-06-29,2021-07-05,2,18.8,72.39,839.0
157,20210622,Southern Plains DEWS,65.51,12.53,5.32,6.13,6.89,3.62,2021-06-22,2021-06-28,2,21.96,87.22,792.0
158,20210615,Southern Plains DEWS,69.8,8.86,4.46,6.07,6.8,4.01,2021-06-15,2021-06-21,2,21.34,83.24,807.0
159,20210608,Southern Plains DEWS,69.49,8.76,4.64,6.13,6.97,4.01,2021-06-08,2021-06-14,2,21.75,84.36,803.0
160,20210601,Southern Plains DEWS,64.6,8.52,6.89,5.32,7.8,6.87,2021-06-01,2021-06-07,2,26.88,103.81,712.0
161,20210525,Southern Plains DEWS,52.54,16.71,7.69,6.61,6.44,10.01,2021-05-25,2021-05-31,2,30.75,127.73,617.0
162,20210518,Southern Plains DEWS,43.37,20.9,9.71,7.57,7.74,10.72,2021-05-18,2021-05-24,2,35.74,147.59,537.0
163,20210511,Southern Plains DEWS,30.78,24.42,13.34,9.47,9.64,12.36,2021-05-11,2021-05-17,2,44.81,179.87,386.0
164,20210504,Southern Plains DEWS,31.38,23.21,13.83,9.68,9.55,12.36,2021-05-04,2021-05-10,2,45.42,179.91,385.0
165,20210427,Southern Plains DEWS,20.25,21.87,19.65,11.41,13.04,13.79,2021-04-27,2021-05-03,2,57.89,216.51,273.0
166,20210420,Southern Plains DEWS,22.34,18.2,21.26,11.76,13.14,13.31,2021-04-20,2021-04-26,2,59.47,215.11,278.0
167,20210413,Southern Plains DEWS,20.19,15.55,24.57,13.11,13.53,13.06,2021-04-13,2021-04-19,2,64.27,223.44,252.0
168,20210406,Southern Plains DEWS,20.9,15.56,24.95,12.44,13.09,13.06,2021-04-06,2021-04-12,2,63.54,220.44,258.0
169,20210330,Southern Plains DEWS,24.25,17.03,23.07,11.43,12.24,11.99,2021-03-30,2021-04-05,2,58.73,206.37,300.0
170,20210323,Southern Plains DEWS,23.69,18.23,21.26,12.49,12.29,12.05,2021-03-23,2021-03-29,2,58.09,207.63,293.0
171,20210316,Southern Plains DEWS,21.48,17.73,22.97,14.26,11.91,11.65,2021-03-16,2021-03-22,2,60.79,212.34,282.0
172,20210309,Southern Plains DEWS,18.62,23.83,22.1,11.6,12.28,11.56,2021-03-09,2021-03-15,2,57.54,209.75,289.0
173,20210302,Southern Plains DEWS,28.77,20.09,16.99,11.1,12.16,10.9,2021-03-02,2021-03-08,2,51.15,190.51,351.0
174,20210223,Southern Plains DEWS,31.8,19.02,16.39,10.37,11.98,10.44,2021-02-23,2021-03-01,2,49.18,183.03,378.0
175,20210216,Southern Plains DEWS,34.17,20.68,12.38,10.58,11.18,11.01,2021-02-16,2021-02-22,2,45.15,176.95,396.0
176,20210209,Southern Plains DEWS,33.25,20.35,12.36,10.48,12.34,11.21,2021-02-09,2021-02-15,2,46.39,181.92,380.0
177,20210202,Southern Plains DEWS,39.27,15.64,12.08,10.0,11.91,11.1,2021-02-02,2021-02-08,2,45.09,172.94,414.0
178,20210126,Southern Plains DEWS,40.02,15.32,12.07,9.96,11.64,10.99,2021-01-26,2021-02-01,2,44.66,170.85,427.0
179,20210119,Southern Plains DEWS,34.21,18.18,11.76,11.33,13.05,11.47,2021-01-19,2021-01-25,2,47.61,185.24,371.0
180,20210112,Southern Plains DEWS,33.96,18.76,11.91,11.72,12.26,11.39,2021-01-12,2021-01-18,2,47.28,183.73,376.0
181,20210105,Southern Plains DEWS,25.44,21.01,14.82,14.56,11.36,12.81,2021-01-05,2021-01-11,2,53.55,203.82,308.0
182,20201229,Southern Plains DEWS,17.69,11.84,23.85,15.92,14.99,15.72,2020-12-29,2021-01-04,2,70.48,245.86,212.0
183,20201222,Southern Plains DEWS,17.57,11.92,24.0,16.15,14.63,15.72,2020-12-22,2020-12-28,2,70.5,245.49,214.0
184,20201215,Southern Plains DEWS,16.49,14.75,23.18,16.5,13.36,15.72,2020-12-15,2020-12-21,2,68.76,242.65,219.0
185,20201208,Southern Plains DEWS,12.56,17.98,25.8,15.92,12.56,15.18,2020-12-08,2020-12-14,2,69.46,243.48,217.0
186,20201201,Southern Plains DEWS,11.9,18.51,26.9,15.37,12.14,15.18,2020-12-01,2020-12-07,2,69.59,242.88,218.0
187,20201124,Southern Plains DEWS,10.24,16.38,30.63,17.72,12.13,12.9,2020-11-24,2020-11-30,2,73.38,243.82,215.0
188,20201117,Southern Plains DEWS,11.4,21.17,27.08,16.88,13.11,10.36,2020-11-17,2020-11-23,2,67.43,230.21,237.0
189,20201110,Southern Plains DEWS,22.66,24.74,18.54,11.35,15.89,6.82,2020-11-10,2020-11-16,2,52.6,193.53,341.0
190,20201103,Southern Plains DEWS,34.29,19.94,16.41,11.07,15.27,3.02,2020-11-03,2020-11-09,2,45.77,162.15,462.0
191,20201027,Southern Plains DEWS,30.49,19.43,16.83,13.88,15.87,3.5,2020-10-27,2020-11-02,2,50.08,175.71,402.0
192,20201020,Southern Plains DEWS,34.06,16.69,17.5,12.36,15.89,3.5,2020-10-20,2020-10-26,2,49.25,169.83,429.0
193,20201013,Southern Plains DEWS,38.19,18.81,12.62,14.75,13.04,2.59,2020-10-13,2020-10-19,2,43.0,153.41,506.0
194,20201006,Southern Plains DEWS,43.41,17.35,12.28,13.98,10.39,2.59,2020-10-06,2020-10-12,2,39.24,138.36,582.0
195,20200929,Southern Plains DEWS,46.79,15.53,11.68,14.2,9.32,2.48,2020-09-29,2020-10-05,2,37.68,131.17,606.0
196,20200922,Southern Plains DEWS,50.48,12.26,13.89,13.79,9.11,0.47,2020-09-22,2020-09-28,2,37.26,120.2,644.0
197,20200915,Southern Plains DEWS,47.17,14.2,14.4,15.11,8.64,0.47,2020-09-15,2020-09-21,2,38.62,125.24,624.0
198,20200908,Southern Plains DEWS,40.58,15.48,16.57,15.8,11.12,0.45,2020-09-08,2020-09-14,2,43.94,142.75,559.0
199,20200901,Southern Plains DEWS,32.56,14.93,21.27,20.21,10.45,0.59,2020-09-01,2020-09-07,2,52.52,162.85,453.0
200,20200825,Southern Plains DEWS,32.86,13.27,22.32,21.67,9.44,0.45,2020-08-25,2020-08-31,2,53.88,162.93,452.0
201,20200818,Southern Plains DEWS,37.35,14.8,23.3,17.7,6.64,0.2,2020-08-18,2020-08-24,2,47.84,142.06,561.0
202,20200811,Southern Plains DEWS,36.21,20.37,22.95,15.51,4.97,0.0,2020-08-11,2020-08-17,2,43.43,132.68,601.0
203,20200804,Southern Plains DEWS,39.57,20.91,20.36,15.15,4.0,0.0,2020-08-04,2020-08-10,2,39.51,123.08,635.0
204,20200728,Southern Plains DEWS,34.07,24.43,23.14,14.41,3.95,0.0,2020-07-28,2020-08-03,2,41.5,129.74,609.0
205,20200721,Southern Plains DEWS,28.29,24.34,29.18,14.38,3.82,0.0,2020-07-21,2020-07-27,2,47.38,141.12,563.0
206,20200714,Southern Plains DEWS,33.74,23.76,23.9,13.67,4.93,0.0,2020-07-14,2020-07-20,2,42.5,132.29,602.0
207,20200707,Southern Plains DEWS,36.84,25.76,20.27,13.39,3.74,0.0,2020-07-07,2020-07-13,2,37.4,121.43,640.0
208,20200630,Southern Plains DEWS,34.62,29.71,18.69,11.9,4.89,0.19,2020-06-30,2020-07-06,2,35.67,123.3,634.0
209,20200623,Southern Plains DEWS,40.33,27.47,15.53,12.63,4.04,0.0,2020-06-23,2020-06-29,2,32.2,112.58,674.0
210,20200616,Southern Plains DEWS,39.32,24.61,18.04,14.01,4.02,0.0,2020-06-16,2020-06-22,2,36.07,118.8,647.0
211,20200609,Southern Plains DEWS,48.84,21.05,18.91,8.55,2.64,0.0,2020-06-09,2020-06-15,2,30.1,95.08,759.0
212,20200602,Southern Plains DEWS,59.59,20.36,14.46,4.8,0.79,0.0,2020-06-02,2020-06-08,2,20.05,66.84,862.0
213,20200526,Southern Plains DEWS,60.6,25.11,9.09,4.72,0.47,0.0,2020-05-26,2020-06-01,2,14.28,59.33,892.0
214,20200519,Southern Plains DEWS,58.72,26.07,9.02,5.51,0.68,0.0,2020-05-19,2020-05-25,2,15.21,63.36,879.0
215,20200512,Southern Plains DEWS,57.86,26.96,7.97,5.55,1.66,0.0,2020-05-12,2020-05-18,2,15.18,66.19,868.0
216,20200505,Southern Plains DEWS,67.09,19.94,6.82,5.03,1.11,0.0,2020-05-05,2020-05-11,2,12.96,53.11,937.0
217,20200428,Southern Plains DEWS,73.13,13.89,6.99,5.03,0.96,0.0,2020-04-28,2020-05-04,2,12.98,46.8,973.0